DLH7JT LMML-EDDM

Flight info

Callsign DLH7JT
Flight time 2h 0m
Altitude 36000
Route GZO P623 OLLEK DCT VAKOR DCT MALOG DCT GENGI DCT LOBSI DCT BRENO M726 BETOS DCT BETOS BETOS1B
Aircraft A321/M-SDE2E3FGIJ1LORWXYZ/HB1

Departure

Time 2026-05-05 14:07
Airport Malta International Airport (LMML)

Arrival

Time 2026-05-05 16:07
Airport Munich Airport (EDDM)
Time Latitude Longitude Altitude Speed Heading
2026-05-05 13:45 35.84711 14.49403 259 ft 0 kts 224°
2026-05-05 13:56 35.84718 14.49411 259 ft 4 kts 224°
2026-05-05 13:56 35.84737 14.49434 259 ft 4 kts 224°
2026-05-05 13:56 35.84752 14.49454 259 ft 4 kts 253°
2026-05-05 13:57 35.84748 14.49480 259 ft 4 kts 316°
2026-05-05 13:57 35.84728 14.49500 259 ft 4 kts 320°
2026-05-05 13:57 35.84722 14.49506 259 ft 0 kts 316°
2026-05-05 14:00 35.84726 14.49502 259 ft 2 kts 316°
2026-05-05 14:00 35.84737 14.49488 259 ft 3 kts 316°
2026-05-05 14:01 35.84756 14.49466 259 ft 4 kts 316°
2026-05-05 14:01 35.84781 14.49436 259 ft 6 kts 316°
2026-05-05 14:01 35.84814 14.49397 259 ft 7 kts 316°
2026-05-05 14:01 35.84853 14.49349 259 ft 9 kts 314°
2026-05-05 14:02 35.84897 14.49292 259 ft 10 kts 311°
2026-05-05 14:02 35.84924 14.49210 258 ft 11 kts 272°
2026-05-05 14:02 35.84897 14.49120 259 ft 11 kts 266°
2026-05-05 14:02 35.84942 14.49036 258 ft 13 kts 308°
2026-05-05 14:03 35.84983 14.48938 259 ft 13 kts 288°
2026-05-05 14:03 35.85010 14.48823 260 ft 14 kts 285°
2026-05-05 14:03 35.85032 14.48718 263 ft 12 kts 284°
2026-05-05 14:03 35.85055 14.48628 266 ft 10 kts 294°
2026-05-05 14:04 35.85090 14.48567 269 ft 8 kts 310°
2026-05-05 14:04 35.85126 14.48519 272 ft 8 kts 313°
2026-05-05 14:04 35.85174 14.48457 272 ft 14 kts 314°
2026-05-05 14:04 35.85258 14.48352 272 ft 21 kts 314°
2026-05-05 14:05 35.85376 14.48205 272 ft 27 kts 314°
2026-05-05 14:05 35.85522 14.48075 272 ft 24 kts 334°
2026-05-05 14:05 35.85634 14.48030 272 ft 15 kts 343°
2026-05-05 14:05 35.85661 14.47952 272 ft 10 kts 235°
2026-05-05 14:06 35.85604 14.47923 272 ft 10 kts 147°
2026-05-05 14:06 35.85578 14.47957 272 ft 0 kts 134°
2026-05-05 14:06 35.85566 14.47971 272 ft 13 kts 134°
2026-05-05 14:06 35.85318 14.48282 272 ft 88 kts 135°
2026-05-05 14:07 35.84725 14.49013 259 ft 150 kts 135°
2026-05-05 14:07 35.83908 14.50043 526 ft 175 kts 134°
2026-05-05 14:07 35.83043 14.51130 1172 ft 180 kts 135°
2026-05-05 14:07 35.82025 14.52050 1748 ft 188 kts 156°
2026-05-05 14:08 35.80694 14.52487 2010 ft 210 kts 175°
2026-05-05 14:08 35.79159 14.52392 2221 ft 234 kts 193°
2026-05-05 14:08 35.77584 14.51617 2573 ft 253 kts 213°
2026-05-05 14:08 35.76275 14.50139 3223 ft 259 kts 234°
2026-05-05 14:09 35.75316 14.48244 3973 ft 262 kts 239°
2026-05-05 14:09 35.74371 14.46309 4731 ft 265 kts 239°
2026-05-05 14:09 35.73416 14.44353 5466 ft 268 kts 239°
2026-05-05 14:09 35.72523 14.42363 6177 ft 271 kts 249°
2026-05-05 14:10 35.72139 14.40095 6877 ft 274 kts 269°
2026-05-05 14:10 35.72439 14.37748 7574 ft 277 kts 290°
2026-05-05 14:10 35.73396 14.35689 8253 ft 280 kts 311°
2026-05-05 14:10 35.74906 14.34174 8923 ft 284 kts 332°
2026-05-05 14:11 35.76739 14.33251 9588 ft 286 kts 339°
2026-05-05 14:11 35.78618 14.32381 10193 ft 293 kts 339°
2026-05-05 14:11 35.80598 14.31460 10368 ft 314 kts 339°
2026-05-05 14:11 35.82643 14.30503 10831 ft 322 kts 339°
2026-05-05 14:12 35.84751 14.29511 11436 ft 326 kts 339°
2026-05-05 14:12 35.86877 14.28507 12039 ft 329 kts 339°
2026-05-05 14:12 35.89025 14.27491 12637 ft 332 kts 339°
2026-05-05 14:12 35.91276 14.26839 13220 ft 335 kts 356°
2026-05-05 14:13 35.93618 14.26726 13782 ft 338 kts 358°
2026-05-05 14:13 35.95981 14.26635 14365 ft 341 kts 358°
2026-05-05 14:13 35.98361 14.26549 14926 ft 344 kts 358°
2026-05-05 14:13 36.00763 14.26464 15486 ft 347 kts 358°
2026-05-05 14:14 36.03185 14.26377 16029 ft 350 kts 358°
2026-05-05 14:14 36.05628 14.26283 16557 ft 353 kts 358°
2026-05-05 14:14 36.08093 14.26188 17099 ft 356 kts 358°
2026-05-05 14:14 36.10575 14.26091 17615 ft 358 kts 358°
2026-05-05 14:15 36.13075 14.25990 18120 ft 361 kts 358°
2026-05-05 14:15 36.15595 14.25892 18606 ft 364 kts 358°
2026-05-05 14:15 36.18133 14.25799 19084 ft 366 kts 358°
2026-05-05 14:15 36.20687 14.25705 19549 ft 369 kts 358°
2026-05-05 14:16 36.23262 14.25613 20002 ft 371 kts 358°
2026-05-05 14:16 36.25855 14.25516 20458 ft 374 kts 358°
2026-05-05 14:16 36.28464 14.25418 20904 ft 376 kts 358°
2026-05-05 14:16 36.31090 14.25316 21353 ft 379 kts 358°
2026-05-05 14:17 36.33733 14.25213 21770 ft 381 kts 358°
2026-05-05 14:17 36.36393 14.25111 22183 ft 384 kts 358°
2026-05-05 14:17 36.39071 14.25010 22582 ft 386 kts 358°
2026-05-05 14:17 36.41763 14.24911 22966 ft 388 kts 358°
2026-05-05 14:18 36.44475 14.24810 23342 ft 391 kts 358°
2026-05-05 14:18 36.47200 14.24704 23714 ft 393 kts 358°
2026-05-05 14:18 36.49938 14.24599 24081 ft 395 kts 358°
2026-05-05 14:18 36.52692 14.24493 24437 ft 397 kts 358°
2026-05-05 14:19 36.55465 14.24387 24782 ft 399 kts 358°
2026-05-05 14:19 36.58247 14.24279 25125 ft 401 kts 358°
2026-05-05 14:19 36.61048 14.24171 25455 ft 404 kts 358°
2026-05-05 14:19 36.63861 14.24064 25786 ft 406 kts 358°
2026-05-05 14:20 36.66693 14.23958 26113 ft 408 kts 358°
2026-05-05 14:20 36.69533 14.23849 26433 ft 410 kts 358°
2026-05-05 14:20 36.72387 14.23734 26749 ft 412 kts 358°
2026-05-05 14:20 36.75261 14.23619 27059 ft 414 kts 358°
2026-05-05 14:21 36.78144 14.23508 27364 ft 416 kts 358°
2026-05-05 14:21 36.81039 14.23398 27664 ft 418 kts 358°
2026-05-05 14:21 36.83952 14.23289 27959 ft 419 kts 358°
2026-05-05 14:21 36.86877 14.23179 28246 ft 421 kts 358°
2026-05-05 14:22 36.89813 14.23067 28516 ft 423 kts 358°
2026-05-05 14:22 36.92763 14.22952 28805 ft 425 kts 358°
2026-05-05 14:22 36.95728 14.22835 29074 ft 427 kts 358°
2026-05-05 14:22 36.98700 14.22717 29339 ft 429 kts 358°
2026-05-05 14:23 37.01688 14.22598 29602 ft 430 kts 358°
2026-05-05 14:23 37.04685 14.22477 29861 ft 432 kts 358°
2026-05-05 14:23 37.07702 14.22361 30118 ft 434 kts 358°
2026-05-05 14:23 37.10726 14.22247 30366 ft 436 kts 358°
2026-05-05 14:24 37.13760 14.22130 30601 ft 437 kts 358°
2026-05-05 14:24 37.16810 14.22010 30832 ft 439 kts 358°
2026-05-05 14:24 37.19874 14.21888 31045 ft 441 kts 358°
2026-05-05 14:24 37.22952 14.21764 31243 ft 444 kts 358°
2026-05-05 14:25 37.26044 14.21642 31448 ft 445 kts 358°
2026-05-05 14:25 37.29139 14.21521 31743 ft 445 kts 358°
2026-05-05 14:25 37.32229 14.21401 32034 ft 444 kts 358°
2026-05-05 14:25 37.35315 14.21283 32349 ft 443 kts 358°
2026-05-05 14:26 37.38394 14.21166 32641 ft 443 kts 358°
2026-05-05 14:26 37.41475 14.21049 32911 ft 442 kts 358°
2026-05-05 14:26 37.44550 14.20931 33167 ft 442 kts 358°
2026-05-05 14:26 37.47620 14.20810 33440 ft 441 kts 358°
2026-05-05 14:27 37.50687 14.20688 33720 ft 441 kts 358°
2026-05-05 14:27 37.53753 14.20565 33966 ft 441 kts 358°
2026-05-05 14:27 37.56774 14.20445 34218 ft 440 kts 358°
2026-05-05 14:27 37.59834 14.20327 34495 ft 439 kts 358°
2026-05-05 14:28 37.62883 14.20209 34751 ft 439 kts 358°
2026-05-05 14:28 37.65932 14.20088 35005 ft 438 kts 358°
2026-05-05 14:28 37.68978 14.19966 35210 ft 438 kts 358°
2026-05-05 14:28 37.72027 14.19845 35415 ft 438 kts 358°
2026-05-05 14:29 37.75068 14.19725 35638 ft 438 kts 358°
2026-05-05 14:29 37.78115 14.19604 35834 ft 437 kts 358°
2026-05-05 14:29 37.81158 14.19482 35980 ft 438 kts 358°
2026-05-05 14:29 37.84174 14.19362 36008 ft 430 kts 358°
2026-05-05 14:30 37.90216 14.19125 36009 ft 440 kts 358°
2026-05-05 14:30 37.96393 14.18881 36009 ft 449 kts 358°
2026-05-05 14:31 38.02692 14.18629 36009 ft 456 kts 358°
2026-05-05 14:31 38.09060 14.18364 36010 ft 459 kts 358°
2026-05-05 14:32 38.15455 14.18106 36010 ft 460 kts 358°
2026-05-05 14:32 38.21850 14.17858 36008 ft 460 kts 358°
2026-05-05 14:33 38.28246 14.17601 36014 ft 460 kts 358°
2026-05-05 14:33 38.34653 14.17340 36022 ft 461 kts 358°
2026-05-05 14:34 38.41065 14.17086 36028 ft 461 kts 358°
2026-05-05 14:34 38.47479 14.16828 36030 ft 461 kts 358°
2026-05-05 14:35 38.53896 14.16566 36032 ft 461 kts 358°
2026-05-05 14:35 38.60309 14.16310 36032 ft 461 kts 358°
2026-05-05 14:36 38.65644 14.16093 36032 ft 461 kts 358°
2026-05-05 14:36 38.72059 14.15827 36034 ft 461 kts 358°
2026-05-05 14:37 38.78478 14.15567 36033 ft 462 kts 358°
2026-05-05 14:37 38.84869 14.14931 36033 ft 461 kts 347°
2026-05-05 14:38 38.91087 14.12901 36034 ft 461 kts 345°
2026-05-05 14:38 38.97306 14.10867 36034 ft 461 kts 345°
2026-05-05 14:39 39.03493 14.08848 36034 ft 461 kts 345°
2026-05-05 14:39 39.09757 14.06800 36035 ft 461 kts 345°
2026-05-05 14:40 39.15932 14.04754 36034 ft 461 kts 345°
2026-05-05 14:40 39.22141 14.02692 36033 ft 461 kts 345°
2026-05-05 14:41 39.28357 14.00645 36033 ft 461 kts 345°
2026-05-05 14:41 39.34567 13.98592 36034 ft 461 kts 345°
2026-05-05 14:42 39.40781 13.96531 36033 ft 461 kts 345°
2026-05-05 14:42 39.46993 13.94464 36034 ft 461 kts 345°
2026-05-05 14:43 39.53204 13.92390 36034 ft 461 kts 345°
2026-05-05 14:43 39.59416 13.90317 36033 ft 461 kts 345°
2026-05-05 14:44 39.65623 13.88247 36032 ft 461 kts 345°
2026-05-05 14:44 39.71829 13.86171 36031 ft 461 kts 345°
2026-05-05 14:45 39.78035 13.84073 36032 ft 461 kts 345°
2026-05-05 14:45 39.84205 13.82002 36032 ft 461 kts 345°
2026-05-05 14:46 39.90414 13.79916 36033 ft 461 kts 345°
2026-05-05 14:46 39.96624 13.77822 36033 ft 461 kts 345°
2026-05-05 14:47 40.02836 13.75724 36035 ft 461 kts 345°
2026-05-05 14:47 40.09050 13.73616 36035 ft 461 kts 345°
2026-05-05 14:48 40.15268 13.71500 36036 ft 462 kts 345°
2026-05-05 14:48 40.21485 13.69385 36036 ft 462 kts 345°
2026-05-05 14:49 40.27704 13.67268 36037 ft 462 kts 345°
2026-05-05 14:49 40.33926 13.65150 36050 ft 462 kts 345°
2026-05-05 14:50 40.40144 13.63028 36038 ft 462 kts 345°
2026-05-05 14:50 40.46363 13.60889 36037 ft 462 kts 345°
2026-05-05 14:51 40.52578 13.58745 36037 ft 462 kts 345°
2026-05-05 14:51 40.58828 13.56809 36035 ft 462 kts 348°
2026-05-05 14:52 40.65130 13.55158 36036 ft 462 kts 348°
2026-05-05 14:52 40.71428 13.53506 36035 ft 461 kts 348°
2026-05-05 14:53 40.77714 13.51779 36036 ft 461 kts 348°
2026-05-05 14:53 40.83993 13.50006 36035 ft 461 kts 347°
2026-05-05 14:54 40.90272 13.48238 36035 ft 462 kts 348°
2026-05-05 14:54 40.96558 13.46484 36035 ft 462 kts 348°
2026-05-05 14:55 41.02803 13.44743 36037 ft 462 kts 348°
2026-05-05 14:55 41.09086 13.42982 36035 ft 462 kts 348°
2026-05-05 14:56 41.15368 13.41217 36036 ft 462 kts 348°
2026-05-05 14:56 41.21655 13.39455 36036 ft 462 kts 348°
2026-05-05 14:57 41.27935 13.37683 36035 ft 462 kts 348°
2026-05-05 14:57 41.34222 13.35907 36035 ft 462 kts 348°
2026-05-05 14:58 41.40504 13.34128 36030 ft 462 kts 348°
2026-05-05 14:58 41.46794 13.32342 36028 ft 462 kts 348°
2026-05-05 14:59 41.53080 13.30550 36032 ft 462 kts 347°
2026-05-05 14:59 41.59374 13.28756 36029 ft 462 kts 348°
2026-05-05 15:00 41.64606 13.27263 36033 ft 463 kts 347°
2026-05-05 15:00 41.71963 13.25150 36033 ft 463 kts 347°
2026-05-05 15:01 41.78266 13.23346 36027 ft 463 kts 348°
2026-05-05 15:01 41.84573 13.21541 36020 ft 464 kts 348°
2026-05-05 15:02 41.90899 13.19728 36017 ft 465 kts 347°
2026-05-05 15:02 41.97243 13.17901 36004 ft 467 kts 347°
2026-05-05 15:03 42.03615 13.16062 36009 ft 469 kts 347°
2026-05-05 15:03 42.09923 13.14229 36021 ft 470 kts 347°
2026-05-05 15:04 42.16292 13.12382 36035 ft 469 kts 347°
2026-05-05 15:04 42.22676 13.10530 36037 ft 469 kts 347°
2026-05-05 15:05 42.32227 13.07735 36032 ft 468 kts 347°
2026-05-05 15:06 42.38598 13.05855 36025 ft 469 kts 347°
2026-05-05 15:06 42.44961 13.03860 36036 ft 469 kts 346°
2026-05-05 15:07 42.51287 13.01690 36023 ft 469 kts 345°
2026-05-05 15:07 42.57618 12.99474 36033 ft 470 kts 345°
2026-05-05 15:08 42.63958 12.97305 36037 ft 469 kts 346°
2026-05-05 15:08 42.70292 12.95169 36035 ft 468 kts 346°
2026-05-05 15:09 42.76615 12.93028 36036 ft 468 kts 346°
2026-05-05 15:09 42.82922 12.90872 36038 ft 467 kts 346°
2026-05-05 15:10 42.89214 12.88708 36033 ft 466 kts 346°
2026-05-05 15:10 42.95510 12.86545 36034 ft 466 kts 346°
2026-05-05 15:11 43.01803 12.84389 36032 ft 466 kts 346°
2026-05-05 15:11 43.08091 12.82227 36031 ft 466 kts 346°
2026-05-05 15:12 43.14378 12.80056 36034 ft 466 kts 345°
2026-05-05 15:12 43.20661 12.77875 36035 ft 465 kts 345°
2026-05-05 15:13 43.26933 12.75694 36036 ft 465 kts 345°
2026-05-05 15:13 43.33204 12.73507 36037 ft 465 kts 345°
2026-05-05 15:14 43.39465 12.71331 36028 ft 465 kts 345°
2026-05-05 15:14 43.45736 12.69146 36028 ft 466 kts 345°
2026-05-05 15:15 43.52028 12.66947 36026 ft 467 kts 345°
2026-05-05 15:15 43.58310 12.64742 36045 ft 466 kts 345°
2026-05-05 15:16 43.64582 12.62540 36037 ft 465 kts 345°
2026-05-05 15:16 43.70850 12.60331 36034 ft 464 kts 345°
2026-05-05 15:17 43.77092 12.58129 36036 ft 464 kts 345°
2026-05-05 15:17 43.83346 12.55926 36035 ft 463 kts 345°
2026-05-05 15:18 43.89584 12.53712 36035 ft 463 kts 345°
2026-05-05 15:18 43.95835 12.51493 36034 ft 463 kts 345°
2026-05-05 15:19 44.02073 12.49262 36036 ft 463 kts 345°
2026-05-05 15:19 44.08304 12.47024 36035 ft 462 kts 345°
2026-05-05 15:20 44.14491 12.44817 36036 ft 462 kts 345°
2026-05-05 15:20 44.20714 12.42598 36036 ft 461 kts 345°
2026-05-05 15:21 44.26930 12.40367 36036 ft 461 kts 345°
2026-05-05 15:21 44.33149 12.38133 36034 ft 461 kts 345°
2026-05-05 15:22 44.39361 12.35894 36034 ft 461 kts 345°
2026-05-05 15:22 44.45578 12.33637 36035 ft 461 kts 345°
2026-05-05 15:23 44.51789 12.31383 36036 ft 461 kts 345°
2026-05-05 15:23 44.58008 12.29132 36034 ft 461 kts 345°
2026-05-05 15:24 44.64225 12.26872 36035 ft 461 kts 345°
2026-05-05 15:24 44.69391 12.24993 36036 ft 461 kts 345°
2026-05-05 15:25 44.75605 12.22725 36036 ft 462 kts 345°
2026-05-05 15:25 44.81820 12.20448 36036 ft 462 kts 345°
2026-05-05 15:26 44.88036 12.18161 36037 ft 462 kts 345°
2026-05-05 15:26 44.94251 12.15875 36036 ft 462 kts 345°
2026-05-05 15:27 45.00466 12.13576 36036 ft 462 kts 345°
2026-05-05 15:27 45.06682 12.11264 36037 ft 462 kts 345°
2026-05-05 15:28 45.12898 12.08956 36037 ft 462 kts 345°
2026-05-05 15:28 45.19110 12.06650 36036 ft 462 kts 345°
2026-05-05 15:29 45.25327 12.04332 36037 ft 462 kts 345°
2026-05-05 15:29 45.31540 12.02007 36036 ft 462 kts 345°
2026-05-05 15:30 45.37758 11.99662 36036 ft 462 kts 345°
2026-05-05 15:30 45.43970 11.97328 36037 ft 462 kts 345°
2026-05-05 15:31 45.50193 11.94995 36037 ft 462 kts 345°
2026-05-05 15:31 45.56409 11.92643 36037 ft 462 kts 345°
2026-05-05 15:32 45.62608 11.90293 36037 ft 462 kts 345°
2026-05-05 15:32 45.68865 11.87921 36037 ft 462 kts 345°
2026-05-05 15:33 45.75080 11.85547 36037 ft 462 kts 345°
2026-05-05 15:33 45.81297 11.83171 36035 ft 462 kts 345°
2026-05-05 15:34 45.87471 11.80819 36020 ft 463 kts 345°
2026-05-05 15:34 45.93720 11.78434 36001 ft 466 kts 345°
2026-05-05 15:35 45.99973 11.76037 36027 ft 466 kts 345°
2026-05-05 15:35 46.06233 11.73630 36031 ft 467 kts 345°
2026-05-05 15:36 46.12513 11.71215 36015 ft 468 kts 345°
2026-05-05 15:36 46.18808 11.68781 36027 ft 469 kts 345°
2026-05-05 15:37 46.25113 11.66344 36017 ft 470 kts 345°
2026-05-05 15:37 46.31435 11.63884 36019 ft 471 kts 345°
2026-05-05 15:38 46.37764 11.61415 36026 ft 471 kts 345°
2026-05-05 15:38 46.44106 11.58939 36025 ft 472 kts 345°
2026-05-05 15:39 46.50457 11.56457 36030 ft 472 kts 345°
2026-05-05 15:39 46.56808 11.53976 36048 ft 473 kts 345°
2026-05-05 15:40 46.63150 11.51488 36037 ft 471 kts 345°
2026-05-05 15:40 46.69398 11.49024 36025 ft 470 kts 345°
2026-05-05 15:41 46.75706 11.46527 36021 ft 469 kts 345°
2026-05-05 15:41 46.81993 11.44044 36018 ft 468 kts 345°
2026-05-05 15:42 46.88284 11.41549 36020 ft 468 kts 344°
2026-05-05 15:42 46.94559 11.39036 36016 ft 468 kts 344°
2026-05-05 15:43 47.00981 11.37946 36012 ft 467 kts
2026-05-05 15:43 47.04227 11.38289 35459 ft 469 kts
2026-05-05 15:43 47.07443 11.38621 34659 ft 470 kts
2026-05-05 15:43 47.10747 11.38954 33795 ft 472 kts
2026-05-05 15:44 47.13991 11.39279 32880 ft 475 kts
2026-05-05 15:44 47.17295 11.39611 32031 ft 475 kts
2026-05-05 15:44 47.20589 11.39944 31215 ft 474 kts
2026-05-05 15:44 47.23875 11.40259 30330 ft 473 kts
2026-05-05 15:45 47.27169 11.40432 29377 ft 474 kts
2026-05-05 15:45 47.30468 11.40464 28348 ft 475 kts 359°
2026-05-05 15:45 47.33797 11.40409 27080 ft 482 kts 359°
2026-05-05 15:45 47.37163 11.40319 25802 ft 487 kts 359°
2026-05-05 15:46 47.40554 11.40236 24581 ft 489 kts 359°
2026-05-05 15:46 47.43913 11.40166 24254 ft 472 kts 359°
2026-05-05 15:46 47.47131 11.40115 24121 ft 453 kts 359°
2026-05-05 15:46 47.50219 11.40081 23985 ft 435 kts 359°
2026-05-05 15:47 47.53203 11.40059 23580 ft 424 kts 359°
2026-05-05 15:47 47.55187 11.40045 23221 ft 420 kts 359°
2026-05-05 15:47 47.59006 11.40011 22464 ft 413 kts 359°
2026-05-05 15:47 47.61864 11.39979 21886 ft 409 kts 359°
2026-05-05 15:48 47.64694 11.39822 21263 ft 406 kts 356°
2026-05-05 15:48 47.67489 11.39499 20695 ft 402 kts 354°
2026-05-05 15:48 47.70255 11.39077 20157 ft 397 kts 353°
2026-05-05 15:48 47.72987 11.38623 19575 ft 393 kts 353°
2026-05-05 15:49 47.75689 11.38184 18993 ft 389 kts 353°
2026-05-05 15:49 47.78369 11.37777 18411 ft 386 kts 354°
2026-05-05 15:49 47.81031 11.37397 17828 ft 382 kts 354°
2026-05-05 15:49 47.83668 11.37039 17228 ft 379 kts 354°
2026-05-05 15:50 47.86283 11.36696 16632 ft 376 kts 355°
2026-05-05 15:50 47.88881 11.36427 16152 ft 369 kts 356°
2026-05-05 15:50 47.91396 11.36226 15949 ft 355 kts 357°
2026-05-05 15:50 47.93820 11.36054 15706 ft 344 kts 357°
2026-05-05 15:51 47.96191 11.35881 15267 ft 339 kts 356°
2026-05-05 15:51 47.98534 11.35700 14789 ft 336 kts 356°
2026-05-05 15:51 48.00858 11.35510 14302 ft 333 kts 356°
2026-05-05 15:51 48.03164 11.35434 13803 ft 331 kts
2026-05-05 15:52 48.05353 11.36369 13316 ft 328 kts 27°
2026-05-05 15:52 48.07153 11.38416 12822 ft 326 kts 49°
2026-05-05 15:52 48.08329 11.41275 12389 ft 321 kts 69°
2026-05-05 15:52 48.09056 11.44348 12224 ft 309 kts 70°
2026-05-05 15:53 48.09779 11.47349 11881 ft 304 kts 70°
2026-05-05 15:53 48.10498 11.50301 11490 ft 301 kts 70°
2026-05-05 15:53 48.11201 11.53178 11083 ft 300 kts 70°
2026-05-05 15:53 48.11914 11.56098 10670 ft 298 kts 70°
2026-05-05 15:54 48.12603 11.58930 10276 ft 296 kts 70°
2026-05-05 15:54 48.13296 11.61800 9882 ft 294 kts 70°
2026-05-05 15:54 48.13982 11.64660 9540 ft 291 kts 70°
2026-05-05 15:54 48.14651 11.67464 9163 ft 288 kts 70°
2026-05-05 15:55 48.15320 11.70268 8778 ft 287 kts 70°
2026-05-05 15:55 48.15990 11.73071 8387 ft 285 kts 70°
2026-05-05 15:55 48.16656 11.75858 8009 ft 284 kts 70°
2026-05-05 15:55 48.17317 11.78630 7620 ft 282 kts 70°
2026-05-05 15:56 48.17968 11.81360 7241 ft 280 kts 70°
2026-05-05 15:56 48.18641 11.84092 6866 ft 279 kts 69°
2026-05-05 15:56 48.19338 11.86769 6489 ft 277 kts 68°
2026-05-05 15:56 48.20048 11.89442 6236 ft 276 kts 68°
2026-05-05 15:57 48.20754 11.92098 5981 ft 276 kts 68°
2026-05-05 15:57 48.21452 11.94745 5723 ft 275 kts 68°
2026-05-05 15:57 48.22156 11.97428 5479 ft 274 kts 68°
2026-05-05 15:57 48.22848 12.00080 5224 ft 273 kts 68°
2026-05-05 15:58 48.23535 12.02725 5007 ft 272 kts 69°
2026-05-05 15:58 48.24218 12.05362 4929 ft 271 kts 69°
2026-05-05 15:58 48.24902 12.08007 4934 ft 271 kts 69°
2026-05-05 15:58 48.25561 12.10562 4931 ft 256 kts 69°
2026-05-05 15:59 48.26186 12.12981 4930 ft 240 kts 69°
2026-05-05 15:59 48.26780 12.15279 4932 ft 236 kts 69°
2026-05-05 15:59 48.27370 12.17570 4933 ft 235 kts 69°
2026-05-05 15:59 48.28023 12.19799 4935 ft 235 kts 58°
2026-05-05 16:00 48.29074 12.21652 4935 ft 234 kts 39°
2026-05-05 16:00 48.30463 12.22907 4934 ft 233 kts 20°
2026-05-05 16:00 48.32016 12.23436 4934 ft 233 kts
2026-05-05 16:00 48.33647 12.23275 4936 ft 233 kts 353°
2026-05-05 16:01 48.35203 12.22672 4935 ft 231 kts 332°
2026-05-05 16:01 48.36440 12.21170 4934 ft 230 kts 307°
2026-05-05 16:01 48.37133 12.19066 4937 ft 227 kts 283°
2026-05-05 16:01 48.37206 12.16790 4940 ft 215 kts 263°
2026-05-05 16:02 48.37038 12.14580 4935 ft 213 kts 263°
2026-05-05 16:02 48.36877 12.12431 4924 ft 198 kts 263°
2026-05-05 16:02 48.36733 12.10472 4939 ft 179 kts 263°
2026-05-05 16:02 48.36601 12.08680 4918 ft 163 kts 263°
2026-05-05 16:03 48.36483 12.07066 4837 ft 154 kts 263°
2026-05-05 16:03 48.36367 12.05475 4714 ft 152 kts 263°
2026-05-05 16:03 48.36249 12.03887 4558 ft 153 kts 263°
2026-05-05 16:03 48.36132 12.02315 4344 ft 151 kts 263°
2026-05-05 16:04 48.36016 12.00748 4147 ft 150 kts 263°
2026-05-05 16:04 48.35901 11.99199 3945 ft 148 kts 263°
2026-05-05 16:04 48.35785 11.97664 3747 ft 148 kts 263°
2026-05-05 16:04 48.35671 11.96132 3544 ft 147 kts 263°
2026-05-05 16:05 48.35557 11.94605 3346 ft 147 kts 263°
2026-05-05 16:05 48.35443 11.93082 3140 ft 146 kts 263°
2026-05-05 16:05 48.35327 11.91567 2931 ft 146 kts 263°
2026-05-05 16:05 48.35211 11.90057 2737 ft 145 kts 263°
2026-05-05 16:06 48.35096 11.88553 2531 ft 145 kts 263°
2026-05-05 16:06 48.34981 11.87047 2339 ft 145 kts 263°
2026-05-05 16:06 48.34866 11.85557 2135 ft 143 kts 263°
2026-05-05 16:06 48.34754 11.84074 1977 ft 142 kts 263°
2026-05-05 16:07 48.34633 11.82600 1828 ft 142 kts 263°
2026-05-05 16:07 48.34525 11.81147 1632 ft 141 kts 264°
2026-05-05 16:07 48.34430 11.79683 1478 ft 132 kts 263°
2026-05-05 16:07 48.34355 11.78789 1484 ft 42 kts 263°
2026-05-05 16:08 48.34404 11.78502 1482 ft 16 kts 301°
2026-05-05 16:08 48.34436 11.78400 1484 ft 4 kts 295°
2026-05-05 16:08 48.34441 11.78386 1474 ft 2 kts 295°
2026-05-05 16:08 48.34449 11.78359 1477 ft 4 kts 295°
2026-05-05 16:09 48.34457 11.78331 1476 ft 5 kts 295°
2026-05-05 16:09 48.34476 11.78271 1482 ft 7 kts 294°
2026-05-05 16:09 48.34500 11.78191 1473 ft 9 kts 294°
2026-05-05 16:09 48.34537 11.78101 1480 ft 11 kts 320°
2026-05-05 16:10 48.34613 11.78071 1481 ft 13 kts 355°
2026-05-05 16:10 48.34679 11.78132 1485 ft 14 kts 70°
2026-05-05 16:10 48.34694 11.78288 1485 ft 15 kts 84°
2026-05-05 16:10 48.34706 11.78455 1485 ft 17 kts 83°
2026-05-05 16:11 48.34722 11.78639 1476 ft 18 kts 83°
2026-05-05 16:11 48.34766 11.79180 1485 ft 19 kts 82°
2026-05-05 16:12 48.34777 11.79316 1479 ft 13 kts 84°
2026-05-05 16:12 48.34849 11.79555 1480 ft 15 kts
2026-05-05 16:13 48.35090 11.79513 1478 ft 8 kts 353°
2026-05-05 16:13 48.35152 11.79501 1476 ft 8 kts 347°
2026-05-05 16:13 48.35166 11.79423 1480 ft 9 kts 262°
2026-05-05 16:14 48.35161 11.79369 1485 ft 0 kts 262°